Flag for Romania Weather past 2 weeks in Bucharest, Romania

36 °F

Passing clouds.

Feels Like: 28 °F
Forecast: 29 / 48 °F
Wind: 10 mph from West

Location: Bucharest / Imh

Current Time: Nov 29, 2015 at 9:19:03 AM

Latest Report: Nov 29, 2015 at 8:30 AM

Visibility: N/A

Pressure: 29.95 "Hg

Humidity: 93%

Dew point: 34 °F

Location of BucharestLocation

Historic Weather in Bucharest — Graph


Bucharest temperature yesterday

Maximum temperature yesterday: 43 °F (at 10:30 AM)
Minimum temperature yesterday: 37 °F (at 12:00 AM)
Average temperature yesterday: 41 °F

Past Weeks' High & Low Weather Summary

High66 °F (Nov 19, 3:30 PM)100% (Nov 20, 5:30 AM)30.24 "Hg (Nov 20, 5:30 AM)
Low36 °F (Nov 25, 7:00 PM)29% (Nov 14, 10:30 PM)29.30 "Hg (Nov 22, 1:30 AM)
Average48 °F78%29.90 "Hg
* Reported Nov 14 7:00 AM — Nov 29 7:00 AM, Bucharest, Weather by CustomWeather, © 2015

Note: Actual official high and low records may vary slightly from our data, if they occured in-between our weather recording intervals... More about our weather records


Bucharest weather history for previous 24 hours

Time TempWeatherWind HumidityBarometerVisibility
7:00 AM
Sun, Nov 29
36 °FPassing clouds.10 mph93%29.92 "HgN/A
6:30 AM36 °FPartly cloudy.9 mph93%29.89 "HgN/A
6:00 AM36 °FPassing clouds.10 mph93%29.89 "HgN/A
5:30 AM36 °FPassing clouds.10 mph93%29.89 "HgN/A
5:00 AM36 °FClear.10 mph100%29.86 "Hg10 mi
4:30 AM37 °FPassing clouds.10 mph93%29.86 "HgN/A
4:00 AM37 °FPassing clouds.10 mph93%29.86 "HgN/A
3:30 AM37 °FOvercast.10 mph93%29.86 "HgN/A
3:00 AM37 °FLow clouds.13 mph93%29.86 "HgN/A
2:30 AM36 °FPassing clouds.14 mph100%29.86 "HgN/A
2:00 AM36 °FPassing clouds.15 mph100%29.86 "HgN/A
1:30 AM36 °FPassing clouds.13 mph100%29.86 "HgN/A
1:00 AM37 °FLow clouds.13 mph93%29.83 "HgN/A
12:00 AM39 °FLow clouds.15 mph93%29.83 "HgN/A
11:30 PM
Sat, Nov 28
41 °FLow clouds.14 mph93%29.83 "HgN/A
11:00 PM41 °FLow clouds.14 mph93%29.83 "HgN/A
10:30 PM41 °FLow clouds.13 mph100%29.83 "HgN/A
10:00 PM43 °FLow clouds.12 mph93%29.80 "HgN/A
9:30 PM43 °FPassing clouds.13 mph93%29.80 "HgN/A
9:00 PM43 °FMostly cloudy.12 mph93%29.80 "HgN/A
8:30 PM43 °FLow clouds.12 mph93%29.80 "HgN/A
8:00 PM43 °FOvercast.9 mph93%29.80 "Hg5 mi
7:30 PM41 °FLow clouds.8 mph100%29.77 "Hg5 mi
7:00 PM41 °FFog.7 mph100%29.77 "Hg3 mi
6:30 PM41 °FFog.8 mph100%29.77 "Hg3 mi
6:00 PM43 °FFog.7 mph93%29.77 "Hg2 mi
5:30 PM43 °FLight rain. Fog.6 mph93%29.77 "Hg1 mi
5:00 PM43 °FLight rain. Fog.6 mph93%29.77 "Hg1 mi
4:30 PM43 °FLight rain. Fog.5 mph93%29.77 "Hg1 mi
4:00 PM43 °FLight rain. Fog.5 mph93%29.77 "Hg1 mi
3:30 PM43 °FLight rain. Fog.3 mph93%29.77 "Hg1 mi
3:00 PM41 °FLight rain. Fog.No wind100%29.74 "Hg2 mi
2:30 PM41 °FLight rain. Fog.2 mph93%29.74 "Hg1 mi
2:00 PM41 °FRain. Fog.5 mph93%29.77 "Hg1 mi
1:30 PM43 °FLight rain. Fog.6 mph93%29.77 "Hg2 mi
1:00 PM43 °FLight rain. More clouds than sun.5 mph93%29.77 "HgN/A
12:30 PM43 °FMore clouds than sun.5 mph93%29.77 "HgN/A
12:00 PM43 °FLow clouds.7 mph93%29.77 "HgN/A
11:30 AM43 °FMore clouds than sun.7 mph93%29.77 "HgN/A
11:00 AM43 °FMore clouds than sun.9 mph93%29.80 "HgN/A
10:30 AM43 °FCloudy.9 mph93%29.77 "HgN/A
10:00 AM41 °FMore clouds than sun.9 mph100%29.77 "HgN/A
Weather by CustomWeather, © 2015

See weather overviewHow to use our weather pages